Kingsville, TX

9:25 AM CST on December 10, 2016 (GMT -0600)
Kingsville Naval Air Station

Weather History for KNQI - October, 2013

Change the Weather History Date:

Thursday, October 10, 2013

  Actual Average Record
Temperature  
Mean Temperature 78 °F -  
Max Temperature 93 °F 81 °F 93 °F (2005)
Min Temperature 66 °F 64 °F 44 °F (2000)
Cooling Degree Days 14    
Growing Degree Days 28 (Base 50)    
Moisture  
Dew Point 69 °F    
Average Humidity 75    
Maximum Humidity 93    
Minimum Humidity 47    
Precipitation  
Precipitation 0.00 in - - ()
Sea Level Pressure  
Sea Level Pressure 29.93 in    
Wind  
Wind Speed 7 mph (SE)    
Max Wind Speed 17 mph    
Max Gust Speed 25 mph    
Visibility 10 miles    
Events      
Averages and records for this station are not official NWS values.
T = Trace of Precipitation, MM = Missing Value Source: NWS Daily Summary

Daily Weather History Graph

Daily Weather History Graph

Search for Another Location

Airport or City:

Trip Planner

Search our weather history database for the weather conditions in past years. The results will help you decide how hot, cold, wet, or windy it might be!

Date:

Astronomy

Oct. 10, 2013 Rise Set
Actual Time 7:28 AM CDT 7:07 PM CDT
Civil Twilight 7:05 AM CDT 7:30 PM CDT
Nautical Twilight 6:38 AM CDT 7:57 PM CDT
Astronomical Twilight 6:11 AM CDT 8:24 PM CDT
Moon 1:02 PM CDT No Moon Set
Length of Visible Light 12h 25m
Length of Day
11h 38m
Waxing Crescent, 36% of the Moon is Illuminated
Oct 10
Waxing Crescent
Oct 11
First Quarter
Oct 18
Full
Oct 26
Last Quarter
Nov 3
New

Hourly Weather History & Observations

Time (CDT) Temp. Heat Index Dew Point Humidity Pressure Visibility Wind Dir Wind Speed Gust Speed Precip Events Conditions
12:56 AM 68.0 °F - 64.9 °F 90% 29.99 in 10.0 mi East 3.5 mph - N/A   Clear
1:56 AM 66.0 °F - 64.0 °F 93% 29.98 in 10.0 mi Calm Calm - N/A   Partly Cloudy
2:56 AM 68.0 °F - 66.0 °F 93% 29.98 in 10.0 mi Calm Calm - N/A   Mostly Cloudy
3:56 AM 68.0 °F - 66.0 °F 93% 29.97 in 10.0 mi NE 3.5 mph - N/A   Mostly Cloudy
4:56 AM 70.0 °F - 66.0 °F 87% 29.96 in 10.0 mi ENE 3.5 mph - N/A   Overcast
5:56 AM 69.1 °F - 66.0 °F 90% 29.96 in 10.0 mi Calm Calm - N/A   Scattered Clouds
6:56 AM 69.1 °F - 66.0 °F 90% 29.96 in 10.0 mi Calm Calm - N/A   Mostly Cloudy
7:56 AM 68.0 °F - 66.0 °F 93% 29.97 in 10.0 mi ESE 3.5 mph - N/A   Scattered Clouds
8:56 AM 75.0 °F - 69.1 °F 82% 29.98 in 10.0 mi SE 3.5 mph - N/A   Partly Cloudy
9:56 AM 82.0 °F 84.9 °F 68.0 °F 62% 29.99 in 10.0 mi South 10.4 mph - N/A   Partly Cloudy
10:56 AM 84.9 °F 88.2 °F 68.0 °F 57% 29.99 in 10.0 mi South 12.7 mph - N/A   Partly Cloudy
11:56 AM 88.0 °F 92.1 °F 69.1 °F 53% 29.98 in 10.0 mi SSE 12.7 mph - N/A   Scattered Clouds
12:56 PM 88.0 °F 90.7 °F 66.9 °F 49% 29.95 in 10.0 mi ESE 17.3 mph - N/A   Scattered Clouds
1:56 PM 91.9 °F 96.9 °F 69.1 °F 47% 29.92 in 10.0 mi SE 13.8 mph 21.9 mph N/A   Scattered Clouds
2:56 PM 89.1 °F 93.7 °F 69.1 °F 52% 29.89 in 10.0 mi ESE 15.0 mph 25.3 mph N/A   Scattered Clouds
3:56 PM 87.1 °F 91.3 °F 69.1 °F 55% 29.88 in 10.0 mi ESE 17.3 mph 24.2 mph N/A   Scattered Clouds
4:56 PM 86.0 °F 90.7 °F 70.0 °F 59% 29.88 in 10.0 mi ESE 16.1 mph - N/A   Partly Cloudy
5:56 PM 84.0 °F 89.0 °F 71.1 °F 65% 29.87 in 10.0 mi SE 17.3 mph 24.2 mph N/A   Partly Cloudy
6:56 PM 81.0 °F 85.2 °F 72.0 °F 74% 29.88 in 10.0 mi ESE 16.1 mph 21.9 mph N/A   Scattered Clouds
7:56 PM 80.1 °F 83.8 °F 72.0 °F 76% 29.88 in 10.0 mi SE 12.7 mph - N/A   Scattered Clouds
8:56 PM 79.0 °F - 73.0 °F 82% 29.89 in 10.0 mi SE 9.2 mph - N/A   Partly Cloudy
9:56 PM 79.0 °F - 73.0 °F 82% 29.89 in 10.0 mi SE 9.2 mph - N/A   Partly Cloudy
10:56 PM 79.0 °F - 73.9 °F 84% 29.89 in 10.0 mi SE 9.2 mph - N/A   Partly Cloudy
11:56 PM 79.0 °F - 73.9 °F 84% 29.89 in 10.0 mi SE 11.5 mph - N/A   Partly Cloudy